Temp
19 19 19 20 20 21 22 23 23 23 24 24 24 25 25 25 27 27 26 30 27 26 27 27 25 23 24 24 24 25 24 25 25 25 28 30 32 32 32 30 31 31 29 28 26
19 19 19 19 20 21 22 22 23 23 24 24 24 25 25 25 26 23 33 31 28 25 26 24 24 23 22 24 25 24 23 26 27 25 26 29 32 31 31 30 30 30 30 29 26
18 18 19 19 20 21 22 23 23 23 24 24 25 25 25 25 24 29 33 30 29 28 29 25 24 24 24 24 25 25 25 27 26 28 28 28 27 30 29 29 30 29 29 28 26
18 18 19 19 20 21 22 22 23 23 24 24 25 25 25 24 30 32 33 32 29 30 29 26 24 24 27 26 27 25 26 26 30 30 31 29 27 31 30 30 31 30 30 28 28
18 18 19 20 20 21 22 23 24 24 24 24 25 25 24 25 26 33 33 32 31 29 29 30 27 29 31 29 29 29 30 29 32 31 29 31 30 30 31 32 31 31 30 28 28
18 18 19 20 21 21 22 23 24 24 25 24 25 24 23 27 34 33 34 32 32 31 32 31 31 32 33 32 32 32 32 32 31 31 30 31 30 30 31 31 31 30 28 28 28
17 18 19 20 21 21 22 23 24 25 25 25 24 23 22 26 33 33 33 33 32 32 31 34 34 34 33 33 35 34 32 31 31 31 29 31 30 29 29 31 30 29 28 29 28
17 18 19 20 21 22 23 24 25 26 26 25 24 23 23 33 33 32 32 33 33 33 33 34 34 34 33 33 34 33 31 30 31 31 31 29 28 28 28 30 29 29 30 30 29
17 18 19 20 21 22 23 25 27 27 26 25 23 23 24 32 33 35 33 34 34 34 34 34 35 33 32 31 29 30 30 30 31 31 30 28 27 28 28 29 29 29 30 30 29
17 18 20 20 21 22 24 26 25 25 25 23 23 23 27 32 34 35 35 35 33 33 34 34 30 30 28 27 28 30 32 34 31 31 31 30 29 29 28 29 30 30 29 29 29
16 18 20 20 22 22 24 25 22 24 25 26 26 26 30 34 35 35 36 35 34 32 31 31 30 28 29 29 31 32 32 33 35 32 30 29 30 28 29 29 29 29 29 29 30
15 17 19 21 22 23 23 20 25 28 25 26 27 28 30 31 32 34 35 33 33 31 31 29 28 30 31 32 33 32 34 33 34 32 30 29 30 30 29 29 29 29 30 30 28
15 17 19 21 23 23 22 25 28 28 24 26 28 28 30 31 31 32 32 31 32 31 30 28 31 33 33 33 33 33 33 36 34 32 31 29 29 28 30 29 29 29 30 31 29
15 16 19 20 22 21 23 27 28 28 21 26 30 31 33 33 32 34 34 33 31 30 30 29 31 33 32 33 33 34 35 38 37 33 31 31 29 28 29 30 30 29 28 29 28
16 17 18 18 17 17 27 27 28 27 27 32 32 35 31 31 33 34 34 33 31 31 31 30 32 32 33 34 35 34 35 36 35 33 32 32 30 29 28 29 30 31 29 29 27
17 17 18 16 16 25 24 27 27 23 29 32 33 33 32 33 33 34 34 34 32 31 31 30 32 34 33 35 37 36 33 30 28 26 28 30 30 29 29 32 31 32 30 30 29
19 18 15 16 20 25 25 23 23 25 31 32 32 32 31 31 32 32 32 30 30 30 28 29 31 31 34 34 32 31 27 26 29 25 28 28 29 30 33 32 33 32 31 31 31
21 21 22 23 24 23 24 22 26 30 30 31 32 31 31 31 32 33 31 30 30 30 26 29 29 33 35 33 32 33 28 26 30 27 28 28 29 32 32 33 34 34 33 32 31
22 22 21 27 26 22 20 22 26 31 31 30 30 29 30 31 31 32 30 29 30 28 29 27 29 32 33 33 33 33 32 29 30 26 28 29 32 35 32 32 33 33 33 32 32
21 21 23 27 26 23 21 23 27 32 32 30 29 30 29 29 30 30 29 31 31 30 29 31 30 32 35 35 34 33 32 31 25 30 31 30 32 30 30 31 32 32 31 31 32
21 20 28 28 26 20 22 23 30 32 33 31 31 31 30 30 30 29 31 34 33 33 30 31 29 32 32 33 33 32 31 28 26 25 27 28 29 28 29 32 32 31 32 32 31
18 23 29 27 22 20 23 28 29 31 30 30 31 29 29 29 30 29 31 32 32 33 32 30 25 28 32 32 34 34 33 28 26 29 25 27 28 31 30 31 30 32 31 32 32
17 19 29 29 23 22 23 28 31 32 31 31 30 29 30 29 30 28 29 31 32 32 32 32 26 26 28 28 32 30 30 29 25 24 27 28 28 29 29 28 27 30 32 30 29
17 22 21 21 21 26 26 27 28 31 30 31 30 29 29 27 25 27 28 30 30 30 27 27 25 26 26 28 28 29 30 28 27 25 27 27 30 30 30 31 31 30 30 31 29
18 20 22 21 23 22 25 26 28 27 28 27 27 27 27 24 25 25 27 27 29 27 28 27 29 29 29 30 31 28 29 29 27 28 27 29 30 29 29 30 30 30 30 30 30
17 17 17 18 20 24 22 25 27 27 27 26 26 27 26 25 27 25 26 26 26 27 26 25 27 28 27 29 29 28 29 29 28 27 28 29 32 30 29 28 29 29 29 29 29
19 20 17 18 21 22 22 25 26 25 27 28 27 26 25 27 28 26 25 24 25 26 26 26 25 25 27 27 29 27 27 27 26 25 25 25 23 25 29 30 28 28 29 29 29
Height
809 806 803 799 795 791 787 784 781 777 773 770 768 766 766 764 762 759 758 760 762 765 766 765 769 767 766 776 784 782 804 813 803 801 780 757 762 759 754 766 765 763 770 776 786
809 805 802 798 794 790 785 782 778 774 771 768 765 763 763 761 758 755 752 756 758 761 765 767 774 773 785 788 788 796 816 794 784 788 787 767 758 763 772 774 775 772 774 779 786
808 804 800 796 792 788 783 780 776 772 769 766 764 761 760 759 758 749 747 755 756 758 761 764 769 777 792 794 790 796 812 799 790 771 767 772 776 766 766 781 769 774 775 779 786
807 803 799 795 790 786 781 777 774 771 767 765 762 760 758 758 774 747 747 751 756 760 763 767 777 784 786 792 780 792 787 786 770 766 768 769 773 766 767 768 761 764 769 778 783
805 801 797 792 788 784 780 775 771 769 766 763 761 759 758 760 754 745 747 749 752 755 755 761 772 770 770 771 773 773 768 768 761 761 767 752 765 763 762 761 763 766 770 776 782
803 798 794 790 786 781 777 773 769 766 764 762 760 759 759 767 740 742 744 746 746 748 745 749 750 747 754 760 762 750 760 760 758 759 760 766 766 756 766 760 766 769 773 775 778
801 797 793 788 783 779 773 769 766 763 761 760 760 759 759 750 738 740 741 741 743 743 744 742 741 744 746 757 742 748 764 761 761 762 774 763 775 778 768 765 769 773 775 775 778
799 795 790 786 781 775 769 765 761 758 757 757 758 759 757 734 736 739 740 740 742 743 742 739 738 737 741 743 749 759 765 783 768 761 758 766 793 774 766 768 773 774 774 774 776
797 793 788 784 778 772 765 760 755 754 754 756 758 758 756 733 732 732 736 737 738 740 740 737 736 743 743 763 783 774 789 782 777 756 761 771 783 767 762 767 773 773 772 773 774
795 790 785 780 776 769 761 756 752 752 754 755 758 764 742 735 727 729 733 735 736 737 741 743 751 764 765 780 809 793 780 766 776 765 760 767 768 758 759 764 769 769 768 771 772
792 786 782 777 773 769 759 755 757 759 755 753 751 749 737 731 726 728 730 733 736 744 765 753 773 784 768 764 761 764 768 768 749 749 765 770 763 761 757 761 767 768 766 766 767
789 784 779 774 770 767 764 764 760 760 762 741 738 739 733 734 741 727 729 742 746 766 757 773 786 757 751 751 754 758 763 761 746 751 765 771 764 756 753 754 753 759 761 760 764
788 782 776 771 767 765 765 761 757 756 767 743 732 733 730 729 738 733 728 738 752 765 765 783 760 740 748 749 757 756 762 751 754 757 762 772 775 768 750 749 750 751 752 753 759
785 780 775 768 768 766 761 758 755 755 791 761 737 725 722 724 738 718 721 734 750 766 765 769 743 750 754 757 750 762 736 735 739 763 787 757 805 774 756 750 748 751 755 755 757
782 778 774 772 770 767 761 756 754 753 803 736 731 711 716 733 729 725 719 731 756 757 762 767 751 755 758 748 733 751 730 737 741 759 764 766 789 774 758 760 750 744 750 751 753
778 775 772 772 769 762 760 756 756 793 794 746 725 731 736 731 731 725 728 725 731 750 752 756 734 740 742 731 727 724 741 756 761 783 806 776 779 779 766 743 743 736 740 746 743
772 769 768 769 763 760 760 758 795 805 744 752 745 736 742 747 740 738 743 754 767 779 784 764 751 734 729 744 735 744 779 821 811 824 810 779 783 763 729 722 723 729 734 734 737
765 762 761 759 760 761 760 778 797 763 760 739 738 740 753 746 742 740 749 762 749 757 786 788 791 739 721 737 752 749 773 818 820 829 806 777 790 755 717 708 706 711 718 727 735
762 760 759 757 758 762 771 799 786 760 749 752 745 761 759 746 743 745 755 759 746 749 777 791 777 729 725 718 726 750 769 758 782 797 803 784 751 726 722 723 712 717 721 727 731
762 761 758 757 758 763 783 792 770 742 741 748 771 759 773 763 755 752 758 735 739 732 731 749 778 737 722 711 719 735 734 776 796 807 805 789 775 775 750 738 731 727 724 724 725
763 767 756 758 761 772 795 785 756 737 736 750 758 761 763 764 757 762 753 730 721 721 730 741 762 753 734 745 751 751 757 766 779 797 816 815 791 755 746 737 728 728 719 720 724
767 777 757 758 779 783 785 762 745 744 738 746 745 755 761 759 758 759 755 743 723 719 742 736 767 774 755 734 727 731 744 762 796 790 795 794 786 728 728 724 726 725 717 714 716
778 775 759 760 793 790 773 760 744 745 746 748 754 750 747 758 766 763 756 734 724 725 733 729 772 797 779 758 735 751 747 748 762 775 787 793 782 731 736 744 729 730 716 718 718
778 787 774 768 772 775 777 771 765 743 748 744 749 749 755 766 765 771 763 743 734 734 731 733 768 782 803 782 766 769 758 755 758 787 784 775 756 741 735 730 721 720 716 716 718
783 793 788 797 782 781 773 772 771 772 757 756 764 766 768 784 777 776 765 759 742 740 741 751 769 764 764 757 754 769 765 761 770 763 772 756 750 742 728 723 720 718 718 721 722
798 802 793 795 787 781 783 782 779 774 770 777 779 770 771 783 777 782 772 771 770 750 758 758 775 766 777 759 757 773 764 763 762 759 748 743 739 723 717 713 719 722 722 725 725
798 796 799 797 792 791 794 785 782 775 769 767 769 773 774 766 759 758 757 759 760 765 763 765 774 783 788 768 764 785 777 772 773 772 765 777 776 749 729 721 727 727 726 729 728
Wind_Speed
19 20 21 22 23 24 24 24 25 24 26 24 21 19 17 18 17 6 5 12 26 32 28 28 11 7 7 5 4 1 5 1 4 4 5 4 18 10 13 19 19 6 15 27 36
21 22 23 24 24 24 25 25 25 25 25 23 21 18 15 16 15 8 6 16 37 39 36 24 8 7 4 4 5 5 3 6 1 3 5 13 13 16 10 19 10 14 16 31 37
23 24 25 25 26 26 26 26 25 26 25 23 20 17 13 13 3 5 12 24 37 31 29 24 23 7 5 2 5 1 3 6 14 12 13 12 16 11 23 12 22 21 17 24 33
24 25 26 26 27 26 27 26 26 25 24 22 20 16 12 3 5 2 12 19 32 30 21 17 12 3 8 9 12 8 14 18 10 22 15 9 17 8 12 12 22 20 15 19 22
26 27 27 27 27 27 27 27 25 24 22 20 19 13 3 3 7 7 12 15 16 21 20 10 12 10 5 14 12 5 15 15 3 5 7 13 10 7 12 19 19 17 12 10 18
27 28 29 28 28 29 29 29 26 24 19 17 15 9 2 1 3 10 10 14 13 16 7 8 6 7 4 10 8 6 5 14 6 1 4 1 5 10 14 19 19 16 10 8 11
28 29 29 28 29 30 31 31 27 24 18 13 10 4 1 11 3 10 7 6 18 14 4 10 9 3 3 2 3 7 6 4 6 4 2 4 5 3 4 12 18 14 9 10 9
29 30 29 29 30 31 32 32 27 22 14 9 6 1 6 6 10 14 9 4 10 15 17 17 20 5 3 4 3 2 3 4 8 10 3 1 5 4 2 11 17 16 14 13 11
29 30 29 29 30 32 34 33 27 11 5 3 1 2 9 10 6 13 18 6 12 15 18 18 4 4 6 3 3 3 3 4 5 5 6 7 5 7 6 7 16 16 15 14 14
30 30 29 30 29 31 36 29 8 3 3 1 2 4 7 4 6 11 17 16 5 2 2 3 3 1 5 5 4 4 4 3 6 11 10 6 4 6 11 10 15 16 16 13 14
30 30 29 30 28 31 32 7 5 5 2 6 5 5 8 9 10 5 11 5 2 6 4 4 1 9 11 6 9 5 4 7 1 10 7 13 3 7 13 9 10 12 16 15 14
29 29 30 29 26 24 10 2 6 5 8 9 13 11 22 10 6 3 8 4 3 2 4 6 7 12 7 7 11 7 3 9 6 15 5 4 5 4 11 13 15 15 15 17 9
29 30 29 29 26 4 16 12 23 19 2 8 6 6 6 9 7 7 8 6 5 4 7 6 12 7 8 13 7 4 4 4 6 15 1 7 7 3 5 3 10 9 15 16 14
29 28 27 30 4 16 11 19 24 14 4 7 4 7 5 5 5 12 12 6 3 9 5 7 12 7 9 7 4 4 2 1 2 4 3 4 4 4 5 13 13 13 13 12 9
28 26 24 19 15 6 9 22 22 4 3 3 2 8 6 8 1 6 7 3 9 8 6 10 6 7 6 7 4 7 3 1 2 2 2 2 3 6 5 9 14 17 16 15 10
28 25 23 6 10 10 18 22 7 5 2 3 4 5 6 1 4 3 5 3 6 4 2 10 5 4 6 6 3 2 6 8 6 3 3 5 4 5 6 16 11 16 18 20 18
27 22 17 9 5 4 20 4 4 3 7 4 4 4 4 5 3 5 8 6 6 2 5 8 10 8 4 6 7 8 7 4 4 5 5 4 2 8 8 10 15 21 21 23 21
20 11 8 14 5 5 7 4 6 3 3 3 3 4 3 4 6 4 4 4 5 4 3 2 9 2 2 9 10 4 8 5 5 3 6 3 4 5 8 9 16 19 22 22 22
13 5 5 3 9 6 5 5 4 2 5 6 8 8 6 4 8 5 9 8 9 9 8 5 7 5 5 8 11 4 2 8 4 1 1 4 4 4 14 17 5 11 17 21 22
7 5 5 2 11 6 5 4 4 2 2 7 4 3 5 7 7 6 8 6 8 13 6 4 5 3 6 6 4 8 4 3 4 1 3 5 3 2 7 7 10 6 15 19 22
5 4 2 12 10 5 2 6 5 4 4 3 2 3 4 3 3 5 5 3 4 3 7 3 3 11 3 4 2 6 3 6 5 5 5 2 5 6 13 5 14 11 14 19 20
4 3 13 18 3 0 2 5 7 5 6 5 5 6 5 3 5 7 6 5 15 3 6 5 6 2 5 4 2 3 4 5 5 5 2 4 5 14 13 13 7 13 9 17 20
2 2 7 8 2 4 7 8 1 3 4 5 6 4 2 5 5 10 9 12 22 7 3 3 3 4 10 9 9 7 7 4 2 4 6 5 5 4 3 16 23 7 5 7 9
2 4 5 4 1 2 4 6 8 9 7 4 6 8 5 9 7 5 12 8 13 12 12 6 3 6 5 6 5 8 14 12 2 4 1 5 5 6 6 7 8 8 7 5 9
4 1 1 3 5 8 3 7 11 8 5 15 8 14 5 7 6 9 5 8 16 9 12 5 1 2 1 3 4 6 11 11 11 5 5 5 9 11 11 9 8 7 8 9 8
3 3 4 4 5 5 8 6 11 8 7 6 5 10 6 6 2 6 5 5 6 9 8 6 3 2 5 6 6 6 14 7 10 13 3 4 2 3 4 9 10 9 10 9 8
8 6 3 5 7 6 5 5 8 6 3 4 4 4 7 2 4 5 6 5 8 5 6 1 2 3 5 3 4 5 5 8 9 16 6 7 8 16 5 9 9 8 10 8 8
Wind_Direction
357 355 353 351 348 345 343 342 341 339 339 336 333 331 334 330 325 299 222 141 157 162 142 147 83 81 38 70 25 344 46 348 271 287 269 320 125 147 128 136 150 201 149 153 142
355 353 352 349 347 344 342 342 340 339 339 337 334 330 334 332 325 250 178 137 154 160 148 143 156 133 53 28 23 46 46 239 243 237 303 276 131 127 123 147 144 127 133 143 143
350 348 348 347 344 343 340 339 340 338 338 337 336 336 335 335 324 252 172 151 165 165 167 165 156 128 86 106 202 134 211 255 261 239 201 75 1 132 159 166 153 155 149 145 149
345 345 344 344 342 341 338 336 336 337 335 336 335 337 333 2 128 101 149 176 169 171 169 160 149 184 156 171 207 135 196 212 270 226 254 129 174 140 182 174 155 154 156 145 157
342 342 341 341 339 337 336 332 331 333 331 332 336 339 358 30 247 182 162 179 177 187 198 168 170 208 165 174 177 193 180 198 127 69 276 139 190 186 143 148 147 150 149 146 164
340 340 339 339 336 334 331 328 327 327 325 327 337 340 21 293 215 184 183 186 188 196 239 181 220 236 169 171 206 208 169 171 101 116 26 164 3 112 133 139 144 150 152 173 152
337 337 336 335 333 331 327 324 324 321 316 315 336 354 306 235 174 183 170 201 195 202 228 235 251 332 143 298 193 180 192 124 121 170 80 331 43 57 41 154 149 157 165 178 185
335 334 334 332 331 328 324 322 320 316 303 293 327 56 251 277 295 222 206 176 191 215 237 275 282 273 211 157 340 175 85 34 134 147 219 84 191 235 125 159 163 169 175 186 210
333 332 331 330 329 327 323 324 318 311 292 264 26 112 269 306 242 219 198 202 221 232 243 261 317 249 338 58 55 332 224 179 122 174 184 175 183 214 162 158 178 178 181 192 207
334 332 330 329 329 328 323 329 358 90 116 42 265 5 275 246 222 223 220 228 205 290 305 247 31 340 314 83 254 181 275 205 166 195 212 240 210 170 158 163 187 184 184 196 200
335 332 328 327 329 330 329 348 10 6 132 213 211 254 287 330 153 171 201 191 99 57 192 294 36 239 258 236 243 248 207 208 217 176 163 223 164 185 158 159 176 198 191 196 195
336 332 328 327 328 326 331 21 242 305 304 245 242 244 258 273 311 235 200 141 101 262 350 1 266 260 244 256 266 261 153 277 238 163 158 228 258 149 166 191 185 189 200 196 181
338 333 329 328 327 344 324 286 333 310 341 292 216 211 224 147 221 235 132 153 152 237 252 186 247 303 296 301 291 221 203 250 153 175 295 141 311 272 204 172 185 198 199 198 180
334 331 330 329 357 331 295 335 344 347 48 279 222 257 177 166 281 206 187 139 148 211 238 248 270 255 287 257 191 350 171 270 41 120 184 181 260 247 226 213 200 195 198 196 166
332 328 326 331 308 299 327 331 333 34 71 172 211 174 146 154 203 346 154 85 188 222 110 247 290 317 307 261 352 265 342 40 80 156 105 307 89 269 178 236 212 198 196 194 176
330 325 320 306 295 288 333 332 356 46 302 189 149 174 94 270 278 325 164 111 198 217 214 241 260 218 234 307 255 266 41 28 35 62 54 227 137 281 196 219 188 191 189 188 199
326 320 297 265 241 291 336 15 51 97 325 7 246 157 156 221 282 178 177 158 182 110 294 321 285 287 191 311 336 68 57 359 343 3 219 220 62 234 258 211 181 190 188 190 196
334 312 290 259 267 334 355 57 62 267 342 302 351 112 153 176 237 188 118 203 262 131 110 231 321 180 201 200 191 185 137 152 230 229 267 61 232 263 236 245 193 181 185 184 190
351 343 311 342 190 215 64 52 219 10 329 8 353 56 349 325 206 137 194 209 210 168 178 179 264 276 214 245 137 233 183 192 159 153 82 252 323 23 27 15 139 161 171 183 186
355 338 271 171 170 119 70 246 266 13 51 23 59 59 355 312 17 165 174 228 234 188 166 225 304 210 297 42 3 150 166 49 10 43 5 334 328 245 21 14 354 151 173 183 184
5 31 164 178 150 52 114 249 277 327 20 89 284 319 353 298 336 34 311 298 338 197 142 95 79 294 24 33 280 336 331 63 119 136 160 213 261 211 123 171 266 263 169 178 187
13 48 177 162 47 167 245 215 290 354 9 9 41 42 359 321 6 28 337 349 351 112 127 229 152 354 216 261 290 250 251 148 131 249 200 162 270 188 177 199 251 269 185 178 185
58 273 192 178 11 330 302 300 272 25 358 21 23 39 336 2 16 47 354 352 357 355 129 343 20 24 347 358 351 25 340 270 102 92 181 141 260 197 157 149 260 203 173 162 159
63 29 337 31 186 301 309 317 352 347 22 13 22 5 4 19 37 44 5 345 349 20 1 28 99 140 181 224 241 8 3 348 46 71 198 213 127 122 203 137 104 105 112 118 135
28 335 160 306 333 332 321 14 20 359 34 24 27 2 28 15 20 0 14 340 337 11 360 60 87 62 171 242 69 74 17 21 42 279 135 248 158 194 166 142 120 102 80 71 67
62 34 344 303 302 1 7 349 37 350 29 358 41 343 38 56 62 324 352 32 268 325 357 352 322 105 336 348 54 67 33 25 21 337 331 105 66 310 172 110 98 92 81 76 71
352 331 103 287 340 31 349 14 23 9 332 25 343 4 341 304 292 270 241 228 230 244 293 143 53 29 302 326 39 35 355 52 67 14 352 14 342 335 340 92 70 80 88 84 59